Rochester, Indiana, United States (46975)
Lat: 41.06N, Lon: 86.22W
Wx Zone: INZ015
Local Info
Past Weather Observations for Today

NOTE: This archive is for the closest National Weather Service station to Rochester. Information may differ from the station used for current weather conditions.

Click here for Long-term Archive

Time Weather Temperature Dewpoint Humidity Pressure Winds Precip Visibility
17:15
Partly Cloudy
39°F / 4°C 23°F / -5°C 52% 29.95 in
(1014 mb)
NW 13.8 mph
(NW 22 kph)
- 10SM
16:55
Partly Cloudy
37°F / 3°C 23°F / -5°C 56% 29.95 in
(1014 mb)
NNW 15 mph
(NNW 24 kph)
- 10SM
16:35
Partly Cloudy
39°F / 4°C 25°F / -4°C 56% 29.95 in
(1014 mb)
NW 13.8 mph
(NW 22 kph)
- 10SM
16:15
Partly Cloudy
39°F / 4°C 27°F / -3°C 61% 29.95 in
(1014 mb)
NNW 13.8 mph
(NNW 22 kph)
- 10SM
15:55
Mostly Cloudy
39°F / 4°C 27°F / -3°C 61% 29.95 in
(1014 mb)
NW 13.8 mph
(NW 22 kph)
- 10SM
15:35
Mostly Cloudy
41°F / 5°C 27°F / -3°C 57% 29.92 in
(1013 mb)
NW 12.7 mph
(NW 20 kph)
- 10SM
15:15
Mostly Cloudy
41°F / 5°C 27°F / -3°C 57% 29.92 in
(1013 mb)
NW 15 mph
(NW 24 kph)
- 10SM
14:55
Partly Cloudy
41°F / 5°C 27°F / -3°C 57% 29.92 in
(1013 mb)
NW 10.4 mph
(NW 17 kph)
- 10SM
14:35
Mostly Cloudy
41°F / 5°C 28°F / -2°C 61% 29.89 in
(1012 mb)
NNW 13.8 mph
(NNW 22 kph)
- 10SM
14:15
Mostly Cloudy
45°F / 7°C 30°F / -1°C 57% 29.92 in
(1013 mb)
NW 16.1 mph
(NW 26 kph)
- 10SM
13:55
Mostly Cloudy
41°F / 5°C 28°F / -2°C 61% 29.92 in
(1013 mb)
NW 15 mph
(NW 24 kph)
- 10SM
13:35
Mostly Cloudy
41°F / 5°C 28°F / -2°C 61% 29.92 in
(1013 mb)
NNW 8.1 mph
(NNW 13 kph)
- 10SM
13:15
Mostly Cloudy
41°F / 5°C 30°F / -1°C 66% 29.92 in
(1013 mb)
NW 12.7 mph
(NW 20 kph)
- 10SM
12:55
Overcast
41°F / 5°C 30°F / -1°C 66% 29.92 in
(1013 mb)
NW 13.8 mph
(NW 22 kph)
- 10SM
12:35
Overcast
39°F / 4°C 30°F / -1°C 70% 29.92 in
(1013 mb)
NW 12.7 mph
(NW 20 kph)
- 10SM
12:15
Overcast
39°F / 4°C 30°F / -1°C 70% 29.92 in
(1013 mb)
NW 11.5 mph
(NW 19 kph)
- 10SM
11:55
Overcast
37°F / 3°C 30°F / -1°C 75% 29.95 in
(1014 mb)
NW 10.4 mph
(NW 17 kph)
- 10SM
11:35
Overcast
37°F / 3°C 30°F / -1°C 75% 29.92 in
(1013 mb)
NNW 10.4 mph
(NNW 17 kph)
- 10SM
11:15
Overcast
37°F / 3°C 30°F / -1°C 75% 29.95 in
(1014 mb)
NNW 11.5 mph
(NNW 19 kph)
- 10SM
10:55
Overcast
37°F / 3°C 32°F / 0°C 81% 29.95 in
(1014 mb)
NNW 8.1 mph
(NNW 13 kph)
- 10SM
10:35
Overcast
37°F / 3°C 30°F / -1°C 75% 29.95 in
(1014 mb)
NNW 9.2 mph
(NNW 15 kph)
- 10SM
10:15
Overcast
36°F / 2°C 30°F / -1°C 81% 29.95 in
(1014 mb)
NW 6.9 mph
(NW 11 kph)
- 10SM
09:55
Overcast
36°F / 2°C 30°F / -1°C 81% 29.95 in
(1014 mb)
N 9.2 mph
(N 15 kph)
- 10SM
09:35
Overcast
36°F / 2°C 32°F / 0°C 87% 29.92 in
(1013 mb)
N 8.1 mph
(N 13 kph)
- 10SM
09:15
Overcast
36°F / 2°C 30°F / -1°C 81% 29.95 in
(1014 mb)
NNW 6.9 mph
(NNW 11 kph)
- 10SM
08:55
Overcast
36°F / 2°C 32°F / 0°C 87% 29.95 in
(1014 mb)
NNW 9.2 mph
(NNW 15 kph)
- 10SM
08:35
Overcast
36°F / 2°C 32°F / 0°C 87% 29.95 in
(1014 mb)
NNW 8.1 mph
(NNW 13 kph)
- 10SM
08:15
Mostly Cloudy
34°F / 1°C 32°F / 0°C 93% 29.95 in
(1014 mb)
NNW 6.9 mph
(NNW 11 kph)
- 10SM
07:55
Partly Cloudy
34°F / 1°C 32°F / 0°C 93% 29.95 in
(1014 mb)
NNW 5.8 mph
(NNW 9 kph)
- 10SM
07:35
Partly Cloudy
34°F / 1°C 32°F / 0°C 93% 29.95 in
(1014 mb)
NNW 5.8 mph
(NNW 9 kph)
- 10SM
07:15
Mostly Cloudy
34°F / 1°C 32°F / 0°C 93% 29.95 in
(1014 mb)
NNW 5.8 mph
(NNW 9 kph)
- 10SM
06:55
Partly Cloudy
34°F / 1°C 32°F / 0°C 93% 29.92 in
(1013 mb)
NNW 4.6 mph
(NNW 7 kph)
- 10SM
06:35
Partly Cloudy
34°F / 1°C 32°F / 0°C 93% 29.92 in
(1013 mb)
NNW 4.6 mph
(NNW 7 kph)
- 10SM
06:15
Mostly Cloudy
Drizzle
34°F / 1°C 32°F / 0°C 93% 29.92 in
(1013 mb)
NNW 4.6 mph
(NNW 7 kph)
- 10SM
05:55
Mostly Cloudy
Drizzle
34°F / 1°C 32°F / 0°C 93% 29.92 in
(1013 mb)
NNW 5.8 mph
(NNW 9 kph)
0.01 in
(0.25 mm)
10SM
05:35
Overcast
Light Rain
34°F / 1°C 32°F / 0°C 93% 29.92 in
(1013 mb)
NNW 6.9 mph
(NNW 11 kph)
0.01 in
(0.25 mm)
10SM
05:15
Overcast
Light Rain
36°F / 2°C 34°F / 1°C 93% 29.92 in
(1013 mb)
NNW 8.1 mph
(NNW 13 kph)
- 7SM
04:55
Overcast
Light Rain
36°F / 2°C 34°F / 1°C 93% 29.92 in
(1013 mb)
NW 6.9 mph
(NW 11 kph)
0.05 in
(1.27 mm)
4SM
04:35
Overcast
Rain
36°F / 2°C 34°F / 1°C 93% 29.95 in
(1014 mb)
NW 5.8 mph
(NW 9 kph)
0.04 in
(1.02 mm)
2 1/2SM
04:15
Overcast
Rain
36°F / 2°C 34°F / 1°C 93% 29.92 in
(1013 mb)
NW 4.6 mph
(NW 7 kph)
0.02 in
(0.51 mm)
3SM
03:55
Overcast
Rain
36°F / 2°C 36°F / 2°C 100% 29.95 in
(1014 mb)
NW 3.5 mph
(NW 6 kph)
0.07 in
(1.78 mm)
4SM
03:35
Overcast
Rain
37°F / 3°C 36°F / 2°C 93% 29.95 in
(1014 mb)
W 3.5 mph
(W 6 kph)
0.04 in
(1.02 mm)
4SM
03:15
Mostly Cloudy
Rain
37°F / 3°C 36°F / 2°C 93% 29.95 in
(1014 mb)
NW 5.8 mph
(NW 9 kph)
0.02 in
(0.51 mm)
4SM
02:55
Partly Cloudy
Rain
37°F / 3°C 36°F / 2°C 93% 29.95 in
(1014 mb)
WNW 5.8 mph
(WNW 9 kph)
- 5SM
02:35
Clear
Light Rain
37°F / 3°C 36°F / 2°C 93% 29.95 in
(1014 mb)
NW 5.8 mph
(NW 9 kph)
- 5SM
02:15
Partly Cloudy
Light Rain
37°F / 3°C 36°F / 2°C 93% 29.95 in
(1014 mb)
NW 5.8 mph
(NW 9 kph)
- 5SM
01:55
Partly Cloudy
Light Rain
37°F / 3°C 36°F / 2°C 93% 29.98 in
(1015 mb)
NW 8.1 mph
(NW 13 kph)
0.01 in
(0.25 mm)
5SM
01:35
Mostly Cloudy
Fog And Mist
37°F / 3°C 36°F / 2°C 93% 30.01 in
(1016 mb)
NW 10.4 mph
(NW 17 kph)
0.01 in
(0.25 mm)
5SM
01:15
Overcast
Light Rain
37°F / 3°C 37°F / 3°C 100% 30.01 in
(1016 mb)
NNW 8.1 mph
(NNW 13 kph)
0.01 in
(0.25 mm)
4SM
00:55
Mostly Cloudy
Drizzle
37°F / 3°C 37°F / 3°C 100% 30.01 in
(1016 mb)
NW 11.5 mph
(NW 19 kph)
- 4SM
00:35
Mostly Cloudy
Drizzle
37°F / 3°C 37°F / 3°C 100% 30.01 in
(1016 mb)
WNW 6.9 mph
(WNW 11 kph)
- 4SM
00:15
Overcast
Rain
39°F / 4°C 37°F / 3°C 93% 30.04 in
(1017 mb)
W 8.1 mph
(W 13 kph)
- 4SM
Time Weather Temperature Dewpoint Humidity Pressure Winds Precip Visibility


Weather for websites

WeatherForYou.com, LLC is not responsible for any damages or problems caused by this service. Current weather conditions are obtained from the closest station including government and personal stations which may have varying degrees of accuracy. Weather forecasts are derived from the NOAA NDFD. Like all things, this site belongs to Jesus Christ... He just trusts me to maintain it. If you have any questions or comments email webmaster@weatherforyou.com

Copyright © 2015, WeatherForYou.com LLC. All rights reserved.